Home   Weather   Santarém   Past weeks

Flag for Brazil Past Weather in Santarém, Pará, Brazil — Yesterday and Last 2 Weeks

Now
79 °F

Passing clouds.


Feels Like: 82 °F
Forecast: 76 / 90 °F
Wind: 8 mph from East

Location: Santarem-Aeroporto

Current Time: Jul 23, 2017 at 7:37:08 am

Latest Report: Jul 23, 2017 at 7:00 am


Visibility: N/A

Pressure: 29.95 "Hg

Humidity: 89%

Dew Point: 75 °F

Location of SantarémLocation

Past Weather in Santarém — Graph

°F

Santarém Temperature Yesterday

Maximum temperature yesterday: 88 °F (at 3:00 pm)
Minimum temperature yesterday: 73 °F (at 1:00 am)
Average temperature yesterday: 79 °F

High & Low Weather Summary for the Past Weeks

 TemperatureHumidityPressure
High95 °F (Jul 13, 6:00 am)100% (Jul 8, 9:00 pm)30.04 "Hg (Jul 8, 9:00 pm)
Low37 °F (Jul 13, 6:30 pm)49% (Jul 11, 2:00 pm)29.83 "Hg (Jul 12, 5:00 pm)
Average79 °F85%29.92 "Hg
* Reported Jul 8 6:00 am — Jul 23 6:00 am, Santarém. Weather by CustomWeather, © 2017

Note: Actual official high and low records may vary slightly from our data, if they occured in-between our weather recording intervals... More about our weather records

Advertising

Santarém Weather History for the Previous 24 Hours

Scroll right to see more
 ConditionsComfort  
Time TempWeatherWind HumidityBarometerVisibility
6:00 am
Sun, Jul 23
77 °FPassing clouds.6 mph94%29.92 "HgN/A
5:00 am79 °FPassing clouds.7 mph89%29.92 "HgN/A
4:00 am79 °FPassing clouds.7 mph89%29.89 "HgN/A
3:00 am77 °FPassing clouds.6 mph100%29.92 "HgN/A
2:00 am73 °FPassing clouds.No wind100%29.92 "HgN/A
1:00 am75 °FPassing clouds.1 mph94%29.95 "HgN/A
12:00 am75 °FPassing clouds.No wind94%29.95 "HgN/A
11:00 pm
Sat, Jul 22
75 °FPassing clouds.1 mph94%29.95 "HgN/A
10:00 pm75 °FPassing clouds.1 mph94%29.95 "HgN/A
9:00 pm77 °FThundershowers. Passing clouds.2 mph94%29.92 "HgN/A
8:00 pm77 °FThundershowers. Passing clouds.No wind94%N/AN/A
7:00 pm77 °FPassing clouds.3 mph94%29.86 "HgN/A
6:00 pm82 °FPassing clouds.No wind84%29.86 "HgN/A
5:00 pm79 °FScattered clouds.3 mph89%29.83 "HgN/A
4:11 pm77 °FLight rain. Scattered clouds.10 mph89%29.86 "HgN/A
4:00 pm81 °FThunderstorms. Partly sunny.14 mph79%N/AN/A
3:20 pm82 °FThunderstorms. Scattered clouds.3 mph74%29.89 "HgN/A
3:00 pm88 °FScattered clouds.8 mph66%29.89 "HgN/A
2:00 pm84 °FScattered clouds.6 mph79%29.92 "HgN/A
1:00 pm77 °FScattered showers. Scattered clouds.No wind94%29.95 "HgN/A
12:00 pm81 °FScattered showers. Broken clouds.5 mph89%N/AN/A
11:00 am82 °FPartly sunny.5 mph84%29.98 "HgN/A
10:00 am84 °FPartly sunny.5 mph79%29.98 "HgN/A
9:00 am81 °FPartly sunny.2 mph84%29.98 "HgN/A
8:00 am79 °FBroken clouds.5 mph89%29.98 "HgN/A
7:00 am77 °FPartly cloudy.No wind94%29.95 "HgN/A
Weather by CustomWeather, © 2017

See weather overviewHow to use our weather pages